Home > Weather > Gröbming > Past weeks

Flag for Austria Past Weather in Gröbming, Styria, Austria — Yesterday and Last 2 Weeks

Now
77 °F

Passing clouds.


Feels Like: 79 °F
Forecast: 53 / 86 °F
Wind: 3 mph from Northeast

Location: Aigen Im Ennstal

Current Time: Aug 24, 2016 at 6:19:28 PM

Latest Report: Aug 24, 2016 at 5:00 PM


Visibility: 31 mi

Pressure: 30.13 "Hg (27.59 "Hg at 769m altitude)

Humidity: 46%

Dew Point: 55 °F

Location of GröbmingLocation

Past Weather in Gröbming — Graph

°F

Gröbming Temperature Yesterday

Maximum temperature yesterday: 74 °F (at 6:00 PM)
Minimum temperature yesterday: 53 °F (at 6:00 AM)
Average temperature yesterday: 61 °F

High & Low Weather Summary for the Past Weeks

 TemperatureHumidityPressure
High83 °F (Aug 14, 5:00 PM)97% (Aug 14, 7:00 AM)30.45 "Hg (Aug 14, 7:00 AM)
Low44 °F (Aug 12, 5:00 AM)37% (Aug 14, 5:00 PM)26.64 "Hg (Aug 12, 5:00 PM)
Average60 °F78%30.11 "Hg
* Reported Aug 9 5:00 PM — Aug 24 5:00 PM, Gröbming, Weather by CustomWeather, © 2016

Note: Actual official high and low records may vary slightly from our data, if they occured in-between our weather recording intervals... More about our weather records

Advertising

Gröbming Weather History for the Previous 24 Hours

Scroll right to see more
 ConditionsComfort  
Time TempWeatherWind HumidityBarometerVisibility
5:00 PM
Wed, Aug 24
77 °FPassing clouds.3 mph46%30.13 "Hg31 mi
4:00 PM77 °FWarm.3 mph46%30.15 "HgN/A
3:00 PM77 °FMild.3 mph49%30.16 "HgN/A
2:00 PM75 °FPassing clouds.3 mph51%30.18 "Hg31 mi
1:00 PM74 °FMild.2 mph53%30.21 "HgN/A
12:00 PM69 °FMild.2 mph68%30.25 "HgN/A
11:00 AM63 °FPassing clouds.N/A73%30.29 "Hg31 mi
10:00 AM57 °FCool.1 mph90%30.34 "HgN/A
8:00 AM51 °FFog.No wind97%30.39 "Hg0 mi
7:00 AM48 °FFog.No wind96%30.40 "Hg0 mi
6:00 AM47 °FCool.No wind97%30.40 "HgN/A
5:00 AM51 °FFog.N/A95%30.37 "Hg1 mi
4:00 AM51 °FCool.No wind96%30.40 "HgN/A
3:00 AM52 °FCool.No wind94%30.40 "HgN/A
2:00 AM54 °FPassing clouds.1 mph97%30.39 "Hg16 mi
9:00 PM
Tue, Aug 23
63 °FMild.2 mph75%30.33 "HgN/A
8:00 PM64 °FPassing clouds.3 mph71%30.29 "Hg31 mi
7:00 PM69 °FMild.2 mph64%30.27 "HgN/A
6:00 PM74 °FMild.1 mph55%30.25 "HgN/A
Weather by CustomWeather, © 2016

See weather overviewHow to use our weather pages